Temp
48 42 41 47 46 46 45 42 41 47 56 52 48 48 51 56 55 54 55 56 58 61 67 68 69 69 68 67 68 70 70 71 68 66 65 66 65 66 68 69 69 68 67 66
43 41 46 50 49 46 45 42 42 47 54 50 47 46 50 53 56 57 58 58 58 59 63 68 67 66 67 68 68 69 69 71 70 70 69 68 68 68 69 68 68 70 68 67
42 46 51 48 45 43 43 42 42 43 48 49 43 43 48 51 56 59 60 61 63 61 61 63 65 65 64 68 67 67 69 69 70 71 69 66 65 66 64 66 67 68 69 68
44 49 48 44 43 45 39 48 46 44 40 35 43 33 46 48 51 55 54 56 58 60 62 63 63 63 60 63 66 65 66 66 69 70 69 66 65 64 66 68 68 68 68 68
39 42 42 42 44 47 43 49 46 44 40 34 40 35 43 44 43 49 55 58 57 56 56 59 60 62 62 61 62 63 63 64 67 68 69 68 66 68 68 68 67 67 68 68
42 44 45 43 48 50 49 44 42 40 38 31 39 36 40 46 49 51 55 54 56 56 57 59 60 61 60 60 59 60 61 62 64 66 67 68 68 67 66 66 64 66 66 67
39 38 42 46 43 44 46 40 31 30 29 30 40 35 42 47 50 54 55 54 54 55 55 56 57 57 58 58 58 59 59 59 61 61 63 65 67 68 67 67 65 65 65 65
34 30 39 43 43 40 40 41 33 26 27 28 36 32 41 51 57 56 54 53 53 53 55 56 56 55 56 57 57 56 57 57 59 59 60 61 64 68 69 68 67 67 66 66
34 34 40 43 44 47 38 36 44 34 29 28 31 37 47 51 48 51 49 51 51 53 55 56 57 55 55 55 55 55 56 56 57 58 58 59 61 63 67 68 68 67 67 67
38 30 38 41 45 46 43 43 33 34 25 25 31 32 36 41 44 48 48 49 52 53 53 53 53 53 53 54 54 56 56 55 56 57 57 59 59 61 62 65 66 66 66 65
44 38 35 40 38 38 38 37 37 36 33 28 26 32 47 46 48 47 48 50 50 51 50 50 50 51 50 51 52 53 54 54 55 56 56 55 57 58 60 60 63 64 65 62
44 39 32 34 40 44 46 42 40 32 30 31 31 33 50 49 48 48 48 50 51 50 48 47 47 47 47 49 50 50 50 51 52 54 55 55 55 57 57 58 59 60 60 61
45 35 29 31 34 39 37 39 41 40 36 31 28 34 50 48 48 51 47 49 48 47 46 45 45 44 45 45 46 46 47 48 49 50 50 53 54 54 56 56 57 58 58 58
49 35 34 32 34 37 34 37 38 37 31 34 36 39 43 47 48 49 48 45 43 44 45 43 42 42 42 43 43 43 44 46 45 45 45 47 50 52 54 54 54 55 57 58
45 34 36 37 37 38 37 37 38 36 38 34 39 40 47 49 45 43 47 46 43 41 41 41 40 40 40 40 41 41 41 41 41 40 41 43 47 50 50 49 49 49 51 51
43 30 37 31 37 37 34 37 38 39 40 38 39 38 47 46 46 43 41 40 38 38 38 38 38 38 38 38 39 39 38 38 38 38 38 41 41 42 45 45 43 42 44 46
40 34 32 27 32 33 24 33 36 38 41 40 35 43 44 41 38 35 34 35 34 34 34 34 35 35 36 35 37 36 36 36 37 36 37 38 36 35 37 39 39 40 41 42
37 34 31 27 27 22 34 40 43 40 35 38 39 35 36 37 34 32 32 31 32 31 31 32 33 32 33 33 34 33 33 33 35 34 35 35 34 34 35 36 36 37 40 39
44 36 28 26 21 27 32 36 36 36 31 29 32 31 31 33 33 27 30 31 30 30 31 31 31 31 30 30 30 28 28 30 32 31 32 31 32 32 34 35 37 39 38 38
41 41 34 22 20 15 31 35 37 41 27 27 29 25 25 30 29 26 27 28 27 28 29 28 28 27 27 27 26 24 25 26 26 27 27 28 30 31 32 35 36 37 36 35
32 32 28 24 16 24 31 30 33 25 27 24 24 23 23 22 22 23 26 24 26 26 26 26 24 23 23 23 23 21 21 22 24 24 25 25 28 29 32 34 35 35 35 33
31 28 28 26 22 20 21 27 31 23 22 22 21 21 20 21 22 22 22 22 22 22 22 22 20 20 20 21 20 18 18 21 20 20 20 21 24 28 32 33 34 34 34 33
25 30 26 26 22 20 20 19 22 24 21 19 19 19 19 18 18 18 18 19 20 19 19 19 16 15 17 17 17 14 15 16 16 15 14 16 22 26 31 33 33 33 33 33
25 23 23 21 18 17 17 19 19 19 17 18 17 16 17 14 16 15 16 17 16 16 15 14 12 10 10 13 13 12 13 13 12 11 13 16 19 24 30 33 33 33 33 33
16 20 18 18 17 16 16 16 17 17 15 14 14 14 13 14 13 13 13 13 14 13 12 11 9 8 8 10 10 10 11 11 10 11 13 16 22 26 29 31 31 31 32 33
7 14 18 18 15 14 14 12 13 12 10 11 10 10 12 12 11 11 10 12 11 10 9 8 7 7 7 7 7 9 10 9 9 10 15 16 20 25 28 29 29 32 34 34
MSLP
1020.40 1020.46 1019.90 1020.63 1020.73 1020.85 1020.67 1020.62 1020.21 1019.48 1018.52 1018.25 1018.17 1017.82 1017.44 1017.06 1016.71 1016.58 1016.38 1015.72 1015.12 1014.73 1013.85 1013.61 1013.58 1013.76 1013.87 1014.12 1014.17 1014.28 1014.60 1014.93 1015.70 1016.24 1016.50 1016.37 1016.34 1016.66 1016.66 1016.60 1016.73 1017.06 1017.37 1017.72
1020.93 1019.74 1020.44 1020.72 1020.87 1020.96 1020.82 1020.76 1019.96 1019.60 1018.72 1018.53 1018.29 1018.02 1017.41 1017.01 1016.29 1016.06 1015.73 1015.18 1014.69 1014.15 1013.74 1013.31 1013.12 1013.37 1013.62 1013.51 1013.40 1013.70 1013.65 1014.01 1014.72 1015.27 1015.79 1016.23 1016.13 1015.96 1015.92 1016.02 1016.07 1016.11 1016.43 1016.72
1020.24 1019.38 1019.93 1020.48 1020.61 1020.65 1020.66 1020.31 1020.26 1020.03 1019.42 1018.93 1018.99 1017.90 1017.16 1016.39 1015.42 1015.11 1014.82 1014.43 1014.07 1013.62 1013.43 1013.04 1012.88 1012.85 1012.94 1013.01 1013.06 1013.05 1012.98 1013.13 1013.61 1014.35 1014.89 1015.44 1015.82 1015.75 1015.65 1015.60 1015.57 1015.34 1015.44 1015.79
1020.12 1019.49 1020.00 1020.21 1019.90 1020.41 1020.05 1019.73 1019.98 1020.11 1020.28 1019.65 1019.41 1017.71 1016.34 1015.97 1014.97 1014.42 1014.22 1013.83 1013.36 1012.98 1012.66 1012.71 1012.81 1012.92 1013.01 1012.82 1012.79 1012.98 1013.17 1013.05 1013.02 1013.42 1013.94 1014.28 1014.52 1014.66 1014.50 1014.33 1014.50 1014.60 1014.69 1014.92
1019.08 1019.29 1019.54 1019.85 1019.27 1019.99 1019.57 1019.76 1019.87 1020.08 1020.35 1020.55 1019.33 1019.53 1015.36 1015.22 1014.72 1014.63 1014.04 1013.26 1012.88 1012.88 1013.00 1013.18 1013.22 1013.25 1013.16 1013.21 1013.07 1013.14 1013.33 1013.29 1013.08 1013.01 1013.05 1013.33 1013.58 1013.49 1013.52 1013.62 1013.69 1013.78 1013.84 1013.96
1019.32 1019.51 1019.31 1019.10 1019.09 1019.24 1019.37 1019.65 1020.04 1020.56 1020.91 1020.54 1017.87 1019.66 1015.37 1014.46 1013.86 1014.05 1013.59 1012.80 1012.71 1013.10 1013.48 1013.58 1013.43 1013.46 1013.49 1013.36 1013.41 1013.58 1013.66 1013.52 1013.18 1012.86 1012.71 1012.61 1012.53 1012.53 1012.64 1012.76 1012.93 1013.03 1013.15 1013.31
1019.41 1019.44 1019.33 1019.18 1019.28 1019.28 1019.47 1020.39 1020.73 1021.08 1021.01 1018.91 1018.24 1018.78 1014.50 1013.21 1013.32 1013.21 1013.15 1013.17 1013.10 1013.39 1013.59 1013.80 1013.96 1014.25 1014.38 1014.28 1013.95 1013.81 1013.73 1013.55 1013.28 1013.04 1012.74 1012.32 1012.03 1011.85 1011.81 1011.88 1012.05 1012.23 1012.34 1012.42
1018.46 1018.88 1019.10 1019.26 1019.24 1019.24 1019.37 1019.88 1020.31 1020.01 1020.04 1019.09 1018.14 1016.92 1013.92 1013.03 1012.71 1012.55 1012.98 1013.28 1013.57 1013.94 1013.87 1014.08 1014.45 1014.72 1014.93 1014.78 1014.55 1014.17 1013.91 1013.64 1013.26 1012.96 1012.67 1012.32 1011.93 1011.46 1011.12 1011.08 1011.07 1011.21 1011.34 1011.30
1017.51 1018.08 1018.11 1018.34 1018.69 1019.07 1019.50 1019.71 1019.92 1020.18 1020.33 1020.08 1017.77 1015.50 1013.88 1013.10 1013.19 1013.09 1013.61 1013.73 1014.03 1014.29 1014.36 1014.61 1014.79 1015.12 1015.49 1015.48 1015.21 1014.70 1014.10 1013.76 1013.31 1012.92 1012.49 1012.15 1011.86 1011.43 1010.74 1010.32 1010.26 1010.40 1010.42 1010.48
1016.45 1017.61 1017.93 1018.60 1018.83 1018.97 1019.15 1019.28 1020.10 1020.24 1020.25 1019.50 1017.48 1015.73 1013.74 1013.21 1013.45 1013.76 1013.97 1014.15 1014.19 1014.45 1014.98 1015.50 1015.69 1015.92 1016.11 1016.08 1015.92 1015.34 1014.87 1014.29 1013.60 1012.96 1012.42 1011.87 1011.58 1011.19 1010.76 1010.12 1009.60 1009.45 1009.47 1009.66
1015.77 1016.48 1018.07 1018.16 1017.76 1017.58 1018.79 1018.78 1019.37 1019.97 1019.99 1019.11 1018.11 1016.68 1014.02 1013.33 1013.28 1013.90 1014.19 1014.28 1014.48 1014.97 1015.77 1016.45 1016.68 1016.92 1016.98 1016.77 1016.54 1016.39 1015.75 1015.05 1014.24 1013.55 1012.68 1011.99 1011.28 1010.87 1010.43 1009.99 1009.45 1009.05 1008.87 1008.80
1015.16 1015.82 1017.10 1017.37 1017.65 1017.51 1017.54 1017.82 1018.46 1018.88 1019.63 1019.04 1018.12 1015.93 1014.41 1013.54 1013.24 1013.80 1014.53 1014.63 1014.88 1015.85 1016.73 1017.32 1017.47 1017.79 1017.93 1017.75 1017.37 1017.09 1016.58 1015.85 1015.03 1014.24 1013.31 1012.52 1011.51 1010.79 1010.28 1009.70 1009.14 1008.74 1008.50 1008.28
1013.81 1015.01 1016.53 1017.60 1018.17 1017.35 1017.39 1017.62 1017.66 1018.07 1018.42 1018.57 1017.87 1015.88 1014.56 1014.04 1014.04 1014.70 1014.95 1015.42 1016.42 1017.11 1017.72 1018.28 1018.25 1018.54 1018.78 1018.71 1018.39 1017.90 1017.37 1016.68 1015.69 1014.95 1014.03 1012.91 1011.94 1011.10 1010.37 1009.79 1009.22 1008.59 1008.19 1007.91
1012.66 1014.05 1014.66 1014.84 1014.55 1015.83 1016.83 1017.04 1017.48 1017.57 1017.75 1017.15 1015.97 1015.56 1014.89 1014.63 1015.25 1015.55 1015.98 1016.99 1017.74 1018.32 1018.86 1019.43 1019.58 1019.64 1019.62 1019.32 1019.10 1018.66 1017.98 1017.38 1016.71 1015.91 1014.82 1013.69 1012.60 1011.67 1010.67 1010.04 1009.57 1009.11 1008.50 1008.03
1012.56 1013.74 1014.70 1015.29 1014.46 1014.79 1015.27 1015.66 1016.40 1016.65 1016.19 1016.35 1015.08 1015.44 1014.72 1015.70 1016.72 1017.21 1018.10 1018.91 1019.21 1019.52 1019.46 1020.29 1020.55 1020.44 1020.05 1019.82 1019.41 1019.00 1018.59 1018.12 1017.47 1016.65 1015.56 1014.47 1013.30 1012.25 1011.19 1010.44 1009.94 1009.48 1009.01 1008.63
1012.32 1013.26 1014.24 1015.01 1015.06 1015.24 1015.54 1015.23 1015.40 1015.41 1015.84 1015.83 1015.46 1015.52 1015.81 1016.62 1017.52 1018.39 1019.59 1020.27 1020.98 1021.08 1021.32 1021.65 1021.50 1021.12 1020.82 1020.71 1020.26 1019.73 1019.34 1018.59 1017.98 1017.25 1016.34 1015.27 1014.34 1013.37 1012.22 1011.25 1010.64 1010.14 1009.65 1009.14
1012.14 1013.31 1014.58 1015.82 1015.88 1015.90 1015.78 1014.45 1014.86 1015.14 1015.41 1015.77 1016.37 1015.44 1016.81 1018.36 1019.53 1020.77 1021.58 1021.74 1021.91 1022.19 1022.15 1021.91 1022.11 1022.33 1021.94 1021.52 1020.99 1020.50 1020.01 1019.40 1018.44 1017.56 1016.64 1015.85 1015.17 1014.10 1013.07 1012.02 1011.01 1010.43 1009.94 1009.46
1012.17 1013.81 1014.99 1016.15 1016.65 1016.21 1014.41 1013.67 1014.04 1015.01 1016.42 1016.99 1017.47 1018.45 1019.19 1019.91 1021.13 1022.35 1023.23 1023.31 1023.35 1023.32 1022.89 1022.84 1022.99 1023.00 1022.50 1021.98 1021.41 1021.33 1020.85 1020.01 1018.95 1018.04 1017.06 1016.11 1015.27 1014.38 1013.42 1012.37 1011.29 1010.36 1009.85 1009.54
1012.22 1013.71 1015.11 1016.24 1016.88 1016.29 1015.19 1014.72 1015.06 1015.72 1017.90 1019.32 1019.90 1020.63 1020.96 1021.46 1022.29 1023.81 1024.45 1024.55 1024.60 1024.51 1024.54 1024.54 1024.47 1024.04 1023.42 1022.82 1022.52 1021.90 1021.03 1020.40 1019.58 1018.67 1017.51 1016.63 1015.69 1014.48 1013.46 1012.34 1011.36 1010.51 1009.82 1009.35
1012.92 1013.55 1015.16 1016.67 1017.55 1017.03 1016.12 1015.68 1015.90 1015.99 1019.28 1021.06 1021.62 1022.55 1022.72 1022.41 1023.68 1024.44 1025.03 1025.24 1025.55 1025.69 1025.50 1025.35 1025.05 1024.53 1023.93 1023.60 1023.21 1022.47 1021.53 1020.93 1020.14 1019.42 1018.36 1017.19 1016.00 1014.73 1013.32 1012.25 1011.20 1010.32 1009.67 1009.09
1013.67 1014.72 1015.66 1017.30 1018.41 1018.40 1017.60 1017.66 1017.62 1019.52 1022.09 1022.87 1023.64 1024.39 1024.59 1024.79 1025.75 1026.05 1026.11 1026.22 1026.41 1026.37 1026.23 1025.88 1025.56 1025.23 1024.90 1024.41 1023.69 1022.86 1022.20 1021.66 1020.80 1020.11 1018.73 1017.28 1015.93 1014.56 1013.17 1011.76 1010.85 1010.13 1009.39 1008.88
1013.82 1015.17 1016.60 1018.61 1020.00 1020.57 1020.48 1020.14 1020.86 1022.60 1023.83 1024.54 1025.24 1025.87 1026.23 1026.59 1026.64 1026.76 1026.95 1027.05 1026.93 1026.73 1026.46 1026.46 1026.24 1026.10 1025.81 1025.31 1024.60 1023.62 1022.60 1021.82 1021.30 1020.05 1018.73 1017.22 1015.74 1014.21 1012.64 1011.28 1010.30 1009.63 1009.16 1008.74
1015.78 1015.82 1017.11 1019.32 1021.12 1022.30 1023.05 1023.49 1024.22 1024.24 1025.30 1026.51 1027.03 1027.64 1027.99 1028.15 1028.40 1028.47 1028.33 1028.10 1027.89 1027.75 1027.65 1027.57 1027.50 1027.01 1026.63 1026.13 1025.54 1024.46 1023.49 1022.50 1021.32 1020.26 1018.56 1016.86 1015.40 1013.87 1012.10 1010.82 1009.98 1009.34 1008.90 1008.54
1017.41 1017.58 1018.75 1020.85 1023.40 1024.31 1025.31 1025.97 1026.30 1026.89 1027.63 1028.42 1028.87 1029.11 1029.29 1029.43 1029.37 1029.27 1029.01 1028.81 1028.81 1028.71 1028.53 1028.46 1028.08 1027.63 1027.13 1026.58 1025.91 1025.19 1024.05 1022.99 1021.66 1019.97 1018.31 1016.73 1015.14 1013.33 1011.69 1010.44 1009.63 1008.98 1008.55 1008.16
1020.04 1020.09 1021.69 1023.98 1025.25 1026.20 1027.16 1027.67 1028.04 1028.71 1029.32 1029.72 1030.08 1030.31 1030.39 1030.26 1030.16 1030.11 1029.92 1029.80 1029.72 1029.72 1029.49 1029.22 1028.76 1028.15 1027.52 1026.81 1026.02 1025.08 1023.95 1022.80 1021.44 1019.97 1018.26 1016.47 1014.63 1012.82 1011.31 1010.17 1009.35 1008.76 1008.29 1008.03
1023.09 1023.56 1024.21 1024.86 1025.19 1026.17 1027.94 1029.40 1029.92 1030.24 1030.68 1031.02 1031.09 1031.14 1031.16 1031.19 1031.14 1031.10 1030.88 1030.79 1030.52 1030.25 1030.02 1029.88 1029.51 1028.80 1027.95 1027.11 1026.07 1025.08 1024.04 1022.90 1021.47 1019.90 1018.11 1016.48 1014.76 1012.96 1011.27 1010.15 1009.51 1009.09 1008.50 1008.20
Wind_Speed
4 4 13 13 9 5 5 4 7 4 5 6 6 10 8 8 7 9 9 9 9 10 10 6 9 10 12 11 12 14 13 15 9 8 9 10 11 7 9 9 13 13 11 12
3 19 5 7 8 8 11 10 15 6 4 4 5 11 9 8 11 11 13 13 11 8 8 10 8 9 10 14 15 14 14 14 11 9 8 8 7 8 8 7 10 14 14 14
12 5 16 10 10 8 10 16 7 10 5 3 4 13 13 8 15 14 14 14 14 14 10 10 9 9 9 12 13 14 15 13 12 14 7 5 3 5 5 8 9 12 14 14
12 8 7 10 17 11 15 9 6 5 4 8 4 12 17 6 10 8 8 9 10 11 11 7 6 6 3 9 7 6 6 8 9 11 11 13 12 12 11 12 10 10 13 13
10 8 15 17 15 9 10 6 7 7 6 2 14 4 17 3 4 6 11 13 8 5 2 6 6 5 6 7 4 5 7 7 10 10 13 11 13 11 10 9 12 13 12 14
8 1 4 6 8 15 3 1 4 5 3 10 20 8 21 15 16 8 8 5 8 9 7 7 7 7 7 8 6 5 5 7 8 10 12 16 16 15 12 11 9 10 10 10
5 4 2 2 5 3 4 5 3 5 6 11 9 10 22 5 4 8 6 9 7 8 8 8 9 8 8 8 8 6 7 7 7 7 9 12 15 16 16 15 10 12 9 10
14 9 11 6 9 5 9 12 4 9 7 4 8 12 10 10 16 10 6 8 8 8 7 7 6 5 6 7 8 7 7 7 8 7 8 7 10 10 11 13 12 10 11 10
13 9 4 6 6 9 4 10 9 9 3 3 5 7 7 7 3 8 9 9 8 7 6 7 7 8 8 8 9 8 8 8 8 7 6 8 8 10 12 14 12 10 12 11
7 3 4 6 4 3 8 5 4 4 5 8 5 6 6 5 8 9 9 9 8 7 8 8 8 8 8 8 10 13 12 9 9 8 6 6 8 9 9 11 13 13 11 11
6 4 4 11 13 14 8 6 4 3 3 2 2 5 8 10 11 12 8 8 8 8 9 8 8 10 8 8 11 12 14 14 14 14 9 8 8 9 9 8 9 10 10 8
12 6 6 4 1 1 14 11 11 5 5 3 2 4 7 11 10 9 8 8 7 10 9 8 8 8 8 11 12 13 14 14 14 15 15 12 9 9 9 9 8 7 7 7
13 5 5 4 5 4 5 5 6 2 4 7 4 5 3 3 6 5 8 7 11 9 9 8 10 9 11 12 12 13 15 15 15 17 16 15 13 10 10 9 10 8 7 7
20 6 6 13 6 10 7 9 12 10 3 7 15 3 2 5 7 5 4 13 9 9 10 8 8 9 9 12 13 13 14 14 16 17 16 16 15 14 11 9 9 9 7 5
13 14 9 5 4 6 5 13 19 17 16 11 10 13 12 2 9 8 9 9 11 11 12 12 11 11 12 14 15 15 15 16 15 16 16 16 17 17 13 9 8 7 7 6
9 4 6 1 5 4 4 9 10 16 14 12 8 12 5 11 8 8 8 8 10 11 10 9 10 12 13 14 15 16 16 18 16 17 17 16 17 17 15 12 8 7 8 8
10 5 4 4 5 6 7 10 15 10 10 16 12 14 1 9 10 9 9 11 12 11 12 13 13 13 12 15 15 15 17 18 16 17 17 15 18 18 17 15 11 9 9 6
9 9 3 4 4 9 4 5 12 15 3 2 5 9 8 8 12 12 12 11 12 13 15 15 13 14 14 15 13 15 16 16 16 18 18 15 16 17 18 17 13 8 7 7
10 6 3 6 5 4 4 2 6 9 4 4 4 5 5 2 7 6 11 11 11 12 11 11 12 14 13 14 15 16 15 15 16 16 17 18 17 17 16 17 16 13 9 6
7 8 5 2 5 8 6 2 5 2 3 3 6 6 6 5 4 2 12 11 11 11 10 12 13 13 14 15 16 16 14 16 15 16 18 17 17 17 16 15 15 11 7 6
9 6 11 4 2 6 2 6 7 7 4 6 7 6 6 4 3 8 10 11 11 11 13 14 13 13 14 16 16 17 16 15 16 17 17 18 17 17 16 15 12 12 9 5
5 6 6 4 3 8 8 4 4 6 6 7 8 8 6 6 10 12 13 14 14 15 15 15 14 14 15 15 15 17 17 18 18 18 18 17 18 15 13 14 12 11 8 6
3 5 7 2 3 5 11 12 9 7 8 5 6 6 6 7 8 11 11 11 13 15 15 14 14 15 14 14 15 17 18 18 19 18 18 18 18 16 15 12 11 9 7 6
1 3 5 6 4 7 9 10 11 11 10 7 6 5 5 6 8 9 10 11 12 13 13 14 15 14 14 14 15 15 17 17 17 18 18 16 16 16 14 9 7 7 6 6
1 4 7 6 9 10 6 8 7 8 8 7 6 6 6 7 8 9 10 11 12 12 12 12 12 13 15 16 16 15 16 16 16 16 16 16 13 15 13 9 5 4 4 5
4 2 4 4 5 4 7 8 5 7 6 5 5 6 7 7 8 9 8 9 11 11 11 12 13 13 15 15 16 17 16 16 16 15 13 12 12 12 10 5 3 16 14 16
Wind_Direction
208 188 218 217 208 216 256 255 256 309 287 179 235 267 272 278 299 295 277 261 255 257 269 232 222 217 201 201 195 200 200 213 190 200 210 215 219 215 214 211 206 202 202 202
151 235 187 194 215 220 246 264 269 285 255 223 261 274 272 264 266 257 264 261 251 247 258 269 260 210 213 208 202 206 202 203 203 206 208 221 222 224 220 213 211 206 206 204
208 182 196 190 225 224 225 232 241 242 296 240 311 276 267 244 251 255 260 254 256 241 239 247 258 246 216 222 213 205 205 197 197 207 205 205 224 238 213 224 220 215 210 206
220 220 216 210 229 203 240 214 232 251 278 262 135 286 275 272 257 260 266 265 265 240 243 245 279 308 292 237 236 238 233 213 205 196 205 205 214 220 223 229 228 223 218 213
211 174 202 225 224 187 253 263 220 219 230 300 250 274 279 240 232 279 284 271 249 286 147 94 62 43 51 22 351 253 251 242 232 213 213 215 221 231 229 228 228 220 218 214
205 124 168 212 208 205 214 32 35 10 139 246 248 188 269 259 248 229 271 349 121 106 78 61 55 42 20 9 18 13 331 280 259 234 227 227 227 227 227 226 223 226 223 218
157 195 155 127 176 138 125 105 246 223 210 247 173 186 238 259 225 192 242 140 109 102 87 60 37 16 6 1 350 344 345 320 312 277 253 238 238 238 236 231 225 227 222 220
204 215 173 167 202 196 206 196 222 218 210 267 160 223 240 229 242 253 133 103 97 98 91 79 53 22 344 341 337 329 331 320 320 315 301 280 256 245 243 236 233 233 232 225
196 220 94 183 147 167 181 205 245 270 128 317 232 277 299 232 82 107 103 95 94 93 82 58 20 18 3 358 342 338 325 313 314 305 300 300 287 268 253 245 237 232 233 232
201 187 183 168 104 245 202 159 152 200 237 248 276 272 230 127 128 116 112 120 118 85 57 49 37 31 17 9 356 356 347 326 308 309 303 304 299 294 275 261 244 235 231 226
166 116 187 135 201 179 174 178 155 129 249 203 261 289 284 161 144 139 136 123 111 103 77 61 45 29 15 6 7 356 357 350 346 335 312 312 311 305 298 276 259 248 239 218
202 138 184 183 345 106 204 211 187 185 179 205 218 242 291 153 151 132 141 120 104 75 76 59 49 28 12 5 2 358 351 349 350 342 335 315 311 311 307 298 278 254 240 235
175 175 151 167 229 172 188 186 173 89 121 210 222 263 255 187 112 99 112 115 74 76 55 41 35 26 12 3 357 353 349 343 344 344 335 328 318 317 313 312 310 293 270 251
161 151 205 221 211 133 186 173 206 185 166 213 217 232 239 197 98 73 61 80 77 66 54 38 26 18 8 359 352 348 346 348 343 337 335 331 328 319 311 313 318 323 320 315
157 204 179 241 143 148 175 187 193 205 214 198 223 206 246 101 63 76 57 47 52 44 42 23 11 2 2 355 349 346 342 342 344 336 334 333 329 325 315 317 316 319 323 328
178 195 148 123 144 152 204 217 207 215 230 258 249 266 251 112 144 89 69 67 38 30 29 8 2 1 359 352 344 340 337 337 338 337 335 329 340 333 325 319 315 318 318 319
162 120 132 206 141 100 300 200 199 204 204 222 230 248 87 108 97 67 50 34 20 10 5 8 2 353 344 345 338 343 333 329 329 333 333 334 337 331 326 319 310 305 304 302
149 153 121 132 83 226 250 206 186 204 94 295 8 65 64 98 101 83 48 32 18 4 357 355 349 341 344 337 343 337 328 323 325 327 328 333 330 325 322 320 314 298 291 282
170 141 119 160 186 305 335 196 146 167 201 27 98 49 33 69 146 90 34 27 13 1 347 341 343 335 334 335 338 331 325 321 326 326 324 327 323 318 315 313 310 303 288 271
139 157 162 124 165 207 220 130 13 122 253 37 79 57 360 323 178 102 2 8 2 353 344 341 338 335 331 338 332 326 326 324 321 323 318 314 313 309 305 303 300 293 266 260
155 174 193 160 175 283 316 323 309 119 213 88 80 64 33 69 20 323 347 349 351 339 346 342 343 335 339 330 331 327 324 317 322 316 310 310 306 303 297 295 294 286 270 255
161 142 189 143 149 255 6 322 183 113 70 90 70 45 29 359 339 344 344 342 338 343 345 347 341 339 332 334 331 326 322 324 317 315 311 307 304 300 294 293 294 284 265 246
169 172 157 129 167 81 41 89 65 78 102 75 65 33 7 339 343 335 333 330 345 344 344 346 336 329 334 334 330 320 319 319 318 314 309 307 303 297 292 292 290 286 259 246
8 3 93 125 130 121 104 78 74 71 83 76 53 31 3 344 338 340 335 344 343 347 345 341 336 336 331 331 326 316 316 318 315 312 308 305 302 298 291 289 280 275 263 248
232 25 113 87 114 109 91 83 84 84 70 58 43 27 17 357 359 349 342 345 345 344 342 341 338 334 329 330 325 324 323 323 317 312 308 307 303 305 300 285 275 280 274 266
354 75 168 182 120 89 115 109 74 85 64 49 34 28 24 17 360 350 345 346 344 342 342 342 340 337 335 332 327 330 330 326 320 315 318 312 310 308 297 290 313 36 40 35